Content
SEND FEEDBACK

Daily
Averages
Monthly
Summary
United States of America

CAPUTA, SOUTH DAKOTA


Home > North America > United States > South Dakota
Elevation: 3149 feet     Latitude: 44 03N     Longitude: 103 04W

WEATHER
 
SELECT A DAY
Number of Records: 198,049;   Date Range: 1/1/95 - 4/15/14
 
SHARE

PRINT THIS DATA

[ ← Previous Day ]
WEATHER ALMANAC - FEBRUARY 5, 2013
[ Next Day → ]
[ °C ]   °F
Weather ElementAverageHighLow
Temperature39.1 °F48 °F (12:52 pm)28.9 °F (11:52 pm)
Dewpoint25 °F27 °F (4:52 am)23 °F (6:52 pm)
Humidity58 %78 % (11:52 pm)41 % (1:52 pm)
Barometer29.92 in30.04 in (8:52 am)29.81 in (11:52 pm)
Wind Speed8.5 mph13.8 mph (1:52 am)
Weather ElementAverage
Visibility10 mi
Wind DirectionSSW (208.3 °)

Weather ElementTotal
Precipitation---
Heating Degree Days26.6 (Base 65)
Averaged from 23 records on February 5, 2013
WEATHER CONDITIONS BREAKOUT
WIND DIRECTION BREAKOUT
WEATHER BY HOUR - FEBRUARY 5, 2013
[ °C ]   °F
Local TimeTemperatureDewpointHumidityBarometerVisibilityWind DirectionWind SpeedGust SpeedPrecipitationEventsConditions
1:52 AM42.1 °F26.1 °F53 %29.88 inNW (310°)13.8 mphOvercast
2:52 AM39.9 °F26.1 °F58 %29.91 inNW (320°)10.4 mphOvercast
3:52 AM37.9 °F26.1 °F62 %29.93 inNNW (340°)9.2 mphOvercast
4:52 AM37.9 °F27.0 °F65 %29.95 inNorth (360°)9.2 mphOvercast
5:52 AM36.0 °F27.0 °F70 %29.97 in10.0 miNorth (350°)9.2 mphOvercast
6:52 AM36.0 °F25.0 °F64 %30.00 in10.0 miNorth (350°)13.8 mphOvercast
7:52 AM36.0 °F25.0 °F64 %30.03 in10.0 miNorth (350°)10.4 mphOvercast
8:52 AM37.9 °F24.1 °F57 %30.04 in10.0 miNNW (340°)10.4 mphOvercast
9:52 AM41.0 °F24.1 °F51 %30.03 in10.0 miNW (320°)6.9 mphScattered Clouds
10:52 AM44.1 °F26.1 °F49 %30.03 in10.0 miNorth
11:52 AM46.0 °F24.1 °F42 %29.98 in10.0 miEast (100°)4.6 mphClear
12:52 PM48.0 °F26.1 °F42 %29.94 in10.0 miSouth (170°)6.9 mphMostly Cloudy
1:52 PM48.0 °F25.0 °F41 %29.91 in10.0 miSE (140°)10.4 mphMostly Cloudy
2:52 PM46.0 °F25.0 °F44 %29.90 in10.0 miSE (140°)11.5 mphOvercast
3:52 PM45.0 °F25.0 °F46 %29.89 in10.0 miESE (120°)11.5 mphScattered Clouds
4:52 PM41.0 °F26.1 °F55 %29.88 in10.0 miESE (120°)10.4 mphClear
5:52 PM42.1 °F24.1 °F49 %29.88 in10.0 miSSW (200°)6.9 mphMostly Cloudy
6:52 PM37.0 °F23.0 °F57 %29.89 in10.0 miSSE (160°)5.8 mphClear
7:52 PM34.0 °F24.1 °F67 %29.89 in10.0 miESE (120°)4.6 mphClear
8:52 PM32.0 °F25.0 °F75 %29.87 in10.0 miSSE (150°)6.9 mphClear
9:52 PM32.0 °F24.1 °F73 %29.84 in10.0 miSouth (170°)6.9 mphClear
10:52 PM30.9 °F23.0 °F72 %29.82 in10.0 miSSE (160°)6.9 mphClear
11:52 PM28.9 °F23.0 °F78 %29.81 inCalmClear
Hourly data recorded from KRAP, located 0.90 miles away from Caputa, South Dakota







STORIES FROM OUR PARTNERS